DateTimeUTC,F1_A11,F1_S11,BsB_S11,BsG_S11,BsR_S11,BbsB_S11,BbsG_S11,BbsR_S11,BaB_A11,BaG_A11,BaR_A11,Tu_S11,T_S11,Uu_S11,U_S11,P_S11,T1_A11
2021-04-18T10:00:00Z,00040200,21000000,,,,,,,0000.57,0000.40,0000.08,16.7,24.2,,00.0,0649.8,31.0
2021-04-18T10:01:00Z,00040200,21000000,,,,,,,0000.13,0000.30,0000.47,16.7,24.3,,00.0,0649.8,31.0
2021-04-18T10:02:00Z,00040200,21000000,,,,,,,-000.40,-000.14,-000.47,16.7,24.3,,00.0,0649.8,31.0
2021-04-18T10:03:00Z,00040200,61000000,,,,,,,-000.02,-000.20,-000.07,16.7,24.3,,00.0,0649.8,31.0
2021-04-18T10:04:00Z,00040200,41000000,0000.72,0000.69,0000.29,0000.27,0000.32,-000.01,-000.22,-000.47,-000.51,16.8,24.1,,00.0,0650.8,31.0
2021-04-18T10:05:00Z,00040200,01000000,0000.32,0000.40,0000.55,0000.59,0000.08,-000.09,0000.03,0000.09,0000.66,16.8,24.0,,00.0,0650.9,31.0
2021-04-18T10:06:00Z,00040200,01000000,0001.04,0000.44,0000.17,0000.40,0000.09,-000.18,0000.51,0000.31,0000.19,16.8,24.0,,00.0,0650.8,31.0
2021-04-18T10:07:00Z,00040200,01000000,0000.37,0000.66,0000.33,0000.18,0000.07,0000.07,0000.66,0000.97,0000.39,16.8,24.0,,00.0,0650.8,31.0
2021-04-18T10:08:00Z,00040200,01000000,0000.55,0000.41,0000.28,0000.30,0000.08,-000.55,0000.57,0000.70,0000.39,16.9,24.0,,00.0,0650.8,31.0
2021-04-18T10:09:00Z,00040200,01000000,0000.51,0000.74,0000.22,0000.13,0000.28,-000.08,0000.19,-000.24,0000.25,16.9,23.9,,00.0,0650.8,31.0
2021-04-18T10:10:00Z,00040200,01000000,0000.57,0000.77,0000.27,0000.56,0000.28,-000.17,0000.50,0000.46,0000.04,16.9,24.0,,00.0,0650.8,31.0
2021-04-18T10:11:00Z,00040200,01000000,0000.87,0000.71,0000.09,0000.12,0000.36,-000.28,-000.12,0000.37,0000.45,16.9,24.0,,00.0,0650.8,31.0
2021-04-18T10:12:00Z,00040200,01000000,0000.23,0000.60,0000.25,-000.05,0000.36,-000.18,0000.60,0000.37,0000.17,16.9,24.0,,00.0,0650.8,31.0
2021-04-18T10:13:00Z,00040200,01000000,0000.45,0000.61,0000.23,0000.44,0000.13,-000.09,0000.46,0000.35,0000.13,16.9,24.0,,00.0,0650.8,31.0
2021-04-18T10:14:00Z,00040200,01000000,-000.10,0000.58,0000.26,0000.46,0000.17,-000.18,0000.52,0000.40,0000.38,16.9,24.0,,00.0,0650.8,31.0
2021-04-18T10:15:00Z,00040200,01000000,0000.48,0000.55,0000.43,-000.03,0000.30,-000.03,0000.47,0000.46,0000.24,16.9,24.0,,00.0,0650.8,31.0
2021-04-18T10:16:00Z,00040200,01000000,0000.81,0000.41,0000.31,0000.68,0000.21,0000.06,0000.46,0000.38,0000.44,16.9,24.0,,00.0,0650.8,31.0
2021-04-18T10:17:00Z,00040200,01000000,-000.05,0000.49,0000.33,0000.16,0000.36,-000.19,0000.13,-000.04,0000.18,16.9,24.0,,00.0,0650.8,31.0
2021-04-18T10:18:00Z,00040200,01000000,0000.76,0000.59,0000.32,0000.55,0000.09,0000.03,0000.15,0000.27,-000.23,16.8,23.9,,00.0,0650.8,31.0
2021-04-18T10:19:00Z,00040200,01000000,-000.09,0000.77,0000.22,0000.25,0000.26,-000.31,0000.60,0000.56,0000.79,16.8,23.9,,00.0,0650.8,31.0
2021-04-18T10:20:00Z,00040200,01000000,0000.18,0000.34,0000.32,0000.28,0000.27,0000.02,0000.08,-000.07,-000.18,16.8,23.9,,00.0,0650.8,31.0
2021-04-18T10:21:00Z,00040200,01000000,0000.58,0000.34,0000.58,-000.10,0000.24,0000.06,0000.72,0000.60,0000.34,16.8,23.9,,00.0,0650.8,31.0
2021-04-18T10:22:00Z,00040200,01000000,-000.03,0000.71,0000.47,0000.18,0000.29,-000.05,0000.55,0000.91,0000.69,16.8,23.9,,00.0,0650.7,31.0
2021-04-18T10:23:00Z,00040200,01000000,0000.76,0000.44,0000.16,0000.25,0000.31,-000.02,0002.10,0001.99,0001.11,16.8,23.9,,00.0,0650.7,31.0
2021-04-18T10:24:00Z,00040200,01000000,0000.82,0000.58,0000.35,0000.02,0000.20,-000.15,0001.47,0000.72,0001.58,16.8,23.9,,00.0,0650.7,30.9
2021-04-18T10:25:00Z,00040200,01000000,0001.05,0000.45,0000.31,0000.04,-000.01,-000.39,0001.62,0001.82,0000.72,16.8,23.9,,00.0,0650.7,30.9
2021-04-18T10:26:00Z,00040200,01000000,0000.78,0000.52,0000.49,0000.09,0000.29,0000.22,0002.61,0002.62,0002.36,16.8,23.9,,00.0,0650.7,31.0
2021-04-18T10:27:00Z,00040200,01000000,0000.76,0000.71,0000.48,0000.51,0000.03,0000.12,0001.76,0001.10,0001.38,16.8,23.9,,00.0,0650.7,31.0
2021-04-18T10:28:00Z,00040200,01000000,0000.61,0000.75,0000.37,0000.59,0000.22,-000.26,0002.00,0002.52,0001.12,16.8,23.9,,00.0,0650.7,31.0
2021-04-18T10:29:00Z,00040200,01000000,0000.23,0000.58,0000.54,0000.59,0000.15,-000.16,0003.83,0003.51,0003.26,16.8,23.9,,00.0,0650.7,31.0
2021-04-18T10:30:00Z,00040200,01000000,0000.35,0000.44,0000.19,0000.29,0000.26,-000.19,0000.73,0000.45,0000.49,16.8,23.8,,00.0,0650.7,31.0
2021-04-18T10:31:00Z,00040200,01000000,0000.86,0000.64,0000.35,0000.73,-000.01,0000.04,0000.48,0000.64,0000.38,16.8,23.8,,00.0,0650.7,30.9
2021-04-18T10:32:00Z,00040200,01000000,0000.98,0000.67,0000.36,0000.42,0000.46,-000.48,0000.38,0000.34,0000.14,16.8,23.8,,00.0,0650.7,30.9
2021-04-18T10:33:00Z,00040200,01000000,0000.77,0000.57,0000.22,-000.25,0000.29,-000.21,-000.02,-000.29,0000.05,16.8,23.8,,00.0,0650.6,31.0
2021-04-18T10:34:00Z,00040200,01000000,0000.83,0000.51,0000.35,0000.74,0000.16,0000.13,0000.07,0000.22,0000.09,16.8,23.8,,00.0,0650.6,31.0
2021-04-18T10:35:00Z,00040200,01000000,0000.05,0000.44,0000.24,0000.56,0000.06,-000.26,0000.47,0000.61,-000.01,16.8,23.8,,00.0,0650.6,31.0
2021-04-18T10:36:00Z,00040200,01000000,0000.80,0000.39,0000.58,0000.39,0000.35,-000.34,0000.02,-000.32,0000.46,16.8,23.8,,00.0,0650.6,31.0
2021-04-18T10:37:00Z,00040200,01000000,0000.45,0000.58,0000.55,0000.68,0000.29,0000.14,0000.31,0000.23,0000.08,16.8,23.8,,00.0,0650.6,30.9
2021-04-18T10:38:00Z,00040200,01000000,0000.58,0000.71,0000.37,0000.41,0000.08,-000.18,0000.29,0000.25,0000.18,16.8,23.8,,00.0,0650.6,31.0
2021-04-18T10:39:00Z,00040200,01000000,0000.80,0000.71,0000.27,0000.09,0000.34,-000.40,-000.52,-000.07,0000.10,16.9,23.8,,00.0,0650.6,31.0
2021-04-18T10:40:00Z,00040200,01000000,0001.51,0001.04,0000.18,0000.52,0000.30,-000.28,-000.12,-000.04,-000.57,17.0,23.9,,00.0,0650.6,31.0
2021-04-18T10:41:00Z,00040200,01000000,0000.30,0000.45,0000.21,0000.12,-000.02,-000.09,-000.28,-000.54,-000.15,17.0,23.9,,00.0,0650.6,31.0
2021-04-18T10:42:00Z,00040200,01000000,0000.96,0000.80,0000.33,-000.04,0000.20,-000.30,0000.27,0000.18,0000.37,17.0,23.9,,00.0,0650.6,31.0
2021-04-18T10:43:00Z,00040200,01000000,0000.43,0000.81,0000.34,0000.58,0000.21,-000.13,-000.02,-000.05,-000.15,17.0,23.9,,00.0,0650.6,31.0
2021-04-18T10:44:00Z,00040200,01000000,0000.79,0000.64,0000.22,0000.74,0000.21,-000.17,-000.33,0000.08,-000.28,17.0,23.9,,00.0,0650.6,31.0
2021-04-18T10:45:00Z,00040200,01000000,0000.48,0000.89,0000.28,0000.03,0000.13,-000.44,-000.15,-000.30,0000.20,17.0,23.9,,00.0,0650.6,31.0
2021-04-18T10:46:00Z,00040200,01000000,0000.99,0000.46,0000.35,0000.57,0000.25,0000.04,-000.45,-000.74,-000.21,17.0,23.9,,00.0,0650.6,31.0
2021-04-18T10:47:00Z,00040200,01000000,0000.78,0000.31,0000.12,-000.05,0000.58,-000.14,-000.45,0000.09,-000.20,17.0,23.9,,00.0,0650.7,31.0
2021-04-18T10:48:00Z,00040200,01000000,0001.20,0000.49,0000.52,0000.39,0000.13,-000.05,0000.10,-000.67,-000.03,17.0,23.9,,00.0,0650.7,31.0
2021-04-18T10:49:00Z,00040200,01000000,0000.19,0000.52,0000.38,0000.37,0000.12,-000.06,-000.39,-000.05,-000.29,16.9,23.9,,00.0,0650.6,31.0
2021-04-18T10:50:00Z,00040200,01000000,0000.64,0000.28,0000.48,0000.09,0000.09,-000.21,0000.10,-000.11,0000.21,16.9,23.9,,00.0,0650.7,31.0
2021-04-18T10:51:00Z,00040200,01000000,0000.11,0000.61,0000.03,0000.29,0000.25,-000.17,0000.05,0000.74,-000.03,16.9,23.9,,00.0,0650.7,31.0
2021-04-18T10:52:00Z,00040200,01000000,0000.91,0000.60,0000.27,0000.01,0000.19,-000.31,0000.61,0000.54,0000.42,16.9,23.9,,00.0,0650.6,31.0
2021-04-18T10:53:00Z,00040200,01000000,0000.67,0000.69,0000.09,0000.44,0000.14,-000.06,0000.56,-000.11,0000.22,16.9,23.8,,00.0,0650.6,31.0
2021-04-18T10:54:00Z,00040200,01000000,0000.29,0000.57,0000.21,0000.33,0000.14,-000.29,0000.02,0000.23,-000.03,16.9,23.8,,00.0,0650.6,30.9
2021-04-18T10:55:00Z,00040200,01000000,0000.99,0000.71,0000.50,-000.06,0000.20,-000.06,0000.38,0000.11,0000.49,16.9,23.8,,00.0,0650.6,30.9
2021-04-18T10:56:00Z,00040200,01000000,0015.69,0016.99,0017.14,0004.05,0003.41,0002.73,0075.24,0071.42,0056.79,16.8,23.8,01.4,00.9,0650.7,30.9
2021-04-18T10:57:00Z,00040200,40000000,,,,,,,-019.91,-018.19,-011.59,16.9,23.9,09.7,06.3,0650.8,30.9
2021-04-18T10:58:00Z,00040200,60000000,,,,,,,-002.20,-001.89,-001.51,16.6,24.0,03.5,02.2,0649.9,30.9
2021-04-18T10:59:00Z,00040200,20000000,,,,,,,-001.85,-002.36,-001.65,16.5,24.1,02.9,01.8,0649.9,30.9
